FIN6AK LGSA-EFHK

Flight info

Callsign FIN6AK
Flight time N/A
Altitude 32000
Route SOKRI UY151 VELOP DCT ATV/N0454F340 UM749 SKP DCT ATFIR N133 USALI DCT LOMOS DCT TIXIP DCT KENIN/N0454F360 DCT TOXAR/N0452F350 DCT BOKSU DCT GUNTA DCT SOKVA DCT ANAMA DCT KEMET Q11 INTOR
Aircraft A321/M-SDE3FGHIRWY/LB1

Departure

Time 2026-04-27 13:50
Airport Chania International Airport (LGSA)

Arrival

Time N/A
Airport Helsinki Vantaa Airport (EFHK)
Time Latitude Longitude Altitude Speed Heading
2026-04-27 13:07 35.53881 24.14014 496 ft 0 kts 21°
2026-04-27 13:40 35.53869 24.14008 498 ft 4 kts 21°
2026-04-27 13:40 35.53842 24.13995 493 ft 4 kts 21°
2026-04-27 13:41 35.53821 24.13984 489 ft 4 kts 36°
2026-04-27 13:41 35.53810 24.13960 487 ft 4 kts 105°
2026-04-27 13:41 35.53819 24.13932 488 ft 2 kts 112°
2026-04-27 13:41 35.53819 24.13931 488 ft 0 kts 112°
2026-04-27 13:43 35.53817 24.13939 490 ft 2 kts 112°
2026-04-27 13:44 35.53806 24.13972 491 ft 7 kts 112°
2026-04-27 13:44 35.53761 24.13996 493 ft 10 kts 187°
2026-04-27 13:44 35.53694 24.13979 496 ft 12 kts 165°
2026-04-27 13:44 35.53642 24.14092 496 ft 16 kts 111°
2026-04-27 13:45 35.53589 24.14253 490 ft 21 kts 112°
2026-04-27 13:45 35.53530 24.14437 489 ft 24 kts 111°
2026-04-27 13:45 35.53465 24.14637 496 ft 26 kts 111°
2026-04-27 13:45 35.53398 24.14843 489 ft 26 kts 112°
2026-04-27 13:46 35.53337 24.15030 494 ft 26 kts 111°
2026-04-27 13:46 35.53282 24.15202 493 ft 26 kts 111°
2026-04-27 13:46 35.53211 24.15420 494 ft 26 kts 112°
2026-04-27 13:46 35.53140 24.15634 493 ft 26 kts 112°
2026-04-27 13:47 35.53071 24.15843 494 ft 26 kts 112°
2026-04-27 13:47 35.53004 24.16047 498 ft 26 kts 110°
2026-04-27 13:47 35.52940 24.16249 488 ft 26 kts 111°
2026-04-27 13:47 35.52871 24.16460 493 ft 26 kts 111°
2026-04-27 13:48 35.52804 24.16669 498 ft 26 kts 111°
2026-04-27 13:48 35.52748 24.16844 496 ft 13 kts 109°
2026-04-27 13:48 35.52672 24.16865 494 ft 12 kts 197°
2026-04-27 13:48 35.52598 24.16821 495 ft 12 kts 214°
2026-04-27 13:49 35.52600 24.16731 493 ft 12 kts 291°
2026-04-27 13:49 35.52639 24.16609 496 ft 28 kts 292°
2026-04-27 13:49 35.52803 24.16101 489 ft 97 kts 291°
2026-04-27 13:49 35.53121 24.15122 487 ft 150 kts 291°
2026-04-27 13:50 35.53555 24.13785 841 ft 164 kts 292°
2026-04-27 13:50 35.53962 24.12492 1511 ft 164 kts 293°
2026-04-27 13:50 35.54371 24.11131 1857 ft 181 kts 291°
2026-04-27 13:50 35.54860 24.09585 2013 ft 202 kts 294°
2026-04-27 13:51 35.55439 24.07891 2260 ft 219 kts 294°
2026-04-27 13:51 35.56038 24.06145 2862 ft 223 kts 294°
2026-04-27 13:51 35.56821 24.04500 3495 ft 224 kts 317°
2026-04-27 13:51 35.58194 24.03491 4168 ft 222 kts 348°
2026-04-27 13:52 35.59677 24.03424 4818 ft 221 kts
2026-04-27 13:52 35.61186 24.03670 5467 ft 223 kts
2026-04-27 13:52 35.62789 24.03927 6002 ft 234 kts
2026-04-27 13:52 35.64481 24.04182 6235 ft 256 kts
2026-04-27 13:53 35.67861 24.02795 7175 ft 273 kts 322°
2026-04-27 13:53 35.69458 24.01283 7871 ft 276 kts 322°
2026-04-27 13:53 35.70942 23.99869 8541 ft 278 kts 322°
2026-04-27 13:54 35.72517 23.98364 9238 ft 281 kts 322°
2026-04-27 13:54 35.74092 23.96860 9910 ft 284 kts 322°
2026-04-27 13:54 35.75666 23.95355 10268 ft 299 kts 322°
2026-04-27 13:54 35.77268 23.93823 10399 ft 319 kts 322°
2026-04-27 13:55 35.78584 23.92565 10488 ft 334 kts 322°
2026-04-27 13:55 35.80268 23.90957 10592 ft 352 kts 322°
2026-04-27 13:55 35.82366 23.88953 10775 ft 369 kts 322°
2026-04-27 13:55 35.84687 23.86734 11315 ft 376 kts 322°
2026-04-27 13:56 35.86749 23.84762 11867 ft 379 kts 322°
2026-04-27 13:56 35.88629 23.82962 12383 ft 382 kts 322°
2026-04-27 13:56 35.90944 23.80750 13008 ft 386 kts 322°
2026-04-27 13:56 35.93166 23.78625 13610 ft 390 kts 322°
2026-04-27 13:57 35.95357 23.76522 14168 ft 394 kts 322°
2026-04-27 13:57 35.97493 23.74465 14697 ft 396 kts 321°
2026-04-27 13:57 35.99668 23.72365 15233 ft 399 kts 321°
2026-04-27 13:57 36.01932 23.70182 15792 ft 402 kts 321°
2026-04-27 13:58 36.04127 23.68070 16352 ft 404 kts 321°
2026-04-27 13:58 36.06101 23.66171 16828 ft 407 kts 321°
2026-04-27 13:58 36.08566 23.63802 17436 ft 409 kts 321°
2026-04-27 13:58 36.10944 23.61515 17991 ft 412 kts 321°
2026-04-27 13:59 36.13076 23.59461 18456 ft 414 kts 321°
2026-04-27 13:59 36.15572 23.57053 18931 ft 416 kts 320°
2026-04-27 13:59 36.17925 23.54780 19391 ft 418 kts 320°
2026-04-27 13:59 36.19319 23.53434 19659 ft 419 kts 320°
2026-04-27 14:00 36.21526 23.51303 20085 ft 421 kts 320°
2026-04-27 14:00 36.24968 23.48422 20705 ft 425 kts 330°
2026-04-27 14:00 36.26771 23.47415 20988 ft 428 kts 337°
2026-04-27 14:00 36.30855 23.46132 21549 ft 434 kts 348°
2026-04-27 14:01 36.32874 23.45722 21820 ft 436 kts 348°
2026-04-27 14:01 36.35714 23.45142 22193 ft 438 kts 348°
2026-04-27 14:01 36.39008 23.44464 22626 ft 440 kts 348°
2026-04-27 14:01 36.41966 23.43852 23008 ft 442 kts 348°
2026-04-27 14:02 36.44801 23.43265 23365 ft 444 kts 348°
2026-04-27 14:02 36.48073 23.42589 23751 ft 446 kts 347°
2026-04-27 14:02 36.51229 23.41936 24075 ft 448 kts 348°
2026-04-27 14:02 36.54152 23.41333 24351 ft 451 kts 348°
2026-04-27 14:03 36.57502 23.40640 24681 ft 452 kts 348°
2026-04-27 14:03 36.60461 23.40027 24979 ft 454 kts 348°
2026-04-27 14:03 36.63782 23.39337 25313 ft 455 kts 348°
2026-04-27 14:03 36.66825 23.38701 25621 ft 457 kts 348°
2026-04-27 14:04 36.70024 23.38034 25942 ft 458 kts 348°
2026-04-27 14:04 36.73373 23.37338 26279 ft 460 kts 347°
2026-04-27 14:04 36.76448 23.36699 26568 ft 462 kts 348°
2026-04-27 14:04 36.79643 23.36034 26942 ft 461 kts 348°
2026-04-27 14:05 36.82877 23.35358 27353 ft 460 kts 348°
2026-04-27 14:05 36.85704 23.34766 27728 ft 459 kts 348°
2026-04-27 14:05 36.88246 23.34234 28065 ft 458 kts 348°
2026-04-27 14:05 36.91398 23.33576 28482 ft 456 kts 348°
2026-04-27 14:06 36.95213 23.32783 29007 ft 455 kts 348°
2026-04-27 14:06 36.98649 23.32070 29473 ft 453 kts 348°
2026-04-27 14:06 37.01904 23.31390 29871 ft 453 kts 348°
2026-04-27 14:06 37.04009 23.30948 30133 ft 452 kts 348°
2026-04-27 14:07 37.08082 23.30093 30578 ft 451 kts 349°
2026-04-27 14:07 37.10803 23.29786 30863 ft 453 kts 357°
2026-04-27 14:07 37.13425 23.29936 31128 ft 455 kts
2026-04-27 14:07 37.16788 23.30762 31465 ft 458 kts 13°
2026-04-27 14:08 37.20006 23.32263 31788 ft 461 kts 22°
2026-04-27 14:08 37.22716 23.34058 32041 ft 462 kts 26°
2026-04-27 14:08 37.25537 23.36001 32097 ft 462 kts 26°
2026-04-27 14:09 37.30175 23.39225 32102 ft 461 kts 26°
2026-04-27 14:09 37.36826 23.43870 32102 ft 461 kts 26°
2026-04-27 14:10 37.42502 23.47838 32097 ft 460 kts 26°
2026-04-27 14:10 37.48159 23.51789 32097 ft 460 kts 26°
2026-04-27 14:11 37.52674 23.54943 32102 ft 460 kts 26°
2026-04-27 14:11 37.59461 23.59698 32115 ft 460 kts 26°
2026-04-27 14:12 37.65034 23.63610 32114 ft 460 kts 26°
2026-04-27 14:12 37.69783 23.66952 32123 ft 459 kts 26°
2026-04-27 14:13 37.75505 23.70993 32129 ft 459 kts 26°
2026-04-27 14:13 37.80836 23.74750 32145 ft 459 kts 26°
2026-04-27 14:14 37.86746 23.78413 32149 ft 454 kts 15°
2026-04-27 14:14 37.92191 23.79667 32150 ft 448 kts 359°
2026-04-27 14:15 37.99285 23.78931 32116 ft 445 kts 351°
2026-04-27 14:15 38.05441 23.78047 32110 ft 446 kts 351°
2026-04-27 14:16 38.11566 23.77168 32111 ft 446 kts 351°
2026-04-27 14:16 38.17727 23.76280 32116 ft 445 kts 351°
2026-04-27 14:17 38.23893 23.75390 32121 ft 445 kts 351°
2026-04-27 14:17 38.30057 23.74494 32129 ft 446 kts 351°
2026-04-27 14:18 38.36227 23.73593 32142 ft 446 kts 351°
2026-04-27 14:18 38.42391 23.72705 32160 ft 446 kts 351°
2026-04-27 14:19 38.48561 23.71809 32165 ft 446 kts 351°
2026-04-27 14:19 38.54719 23.70907 32165 ft 445 kts 351°
2026-04-27 14:20 38.60873 23.70007 32169 ft 445 kts 351°
2026-04-27 14:20 38.67025 23.69109 32173 ft 445 kts 351°
2026-04-27 14:21 38.73136 23.68210 32180 ft 445 kts 351°
2026-04-27 14:21 38.79295 23.67307 32182 ft 445 kts 351°
2026-04-27 14:22 38.85441 23.66403 32180 ft 444 kts 351°
2026-04-27 14:22 38.91588 23.65502 32195 ft 444 kts 351°
2026-04-27 14:23 38.97726 23.64596 32185 ft 444 kts 351°
2026-04-27 14:23 39.03871 23.63685 32186 ft 444 kts 351°
2026-04-27 14:24 39.10022 23.62780 32193 ft 444 kts 350°
2026-04-27 14:24 39.16163 23.61868 32183 ft 444 kts 351°
2026-04-27 14:25 39.22372 23.61901 32177 ft 448 kts
2026-04-27 14:25 39.28595 23.62332 32178 ft 447 kts 360°
2026-04-27 14:26 39.34815 23.62748 32181 ft 448 kts 359°
2026-04-27 14:26 39.41039 23.63175 32185 ft 448 kts 360°
2026-04-27 14:27 39.47267 23.63606 32181 ft 448 kts 360°
2026-04-27 14:27 39.53495 23.64045 32194 ft 448 kts 359°
2026-04-27 14:28 39.59691 23.64479 32188 ft 449 kts 359°
2026-04-27 14:28 39.65925 23.64917 32185 ft 449 kts 359°
2026-04-27 14:29 39.72169 23.65347 32188 ft 449 kts 359°
2026-04-27 14:29 39.78417 23.65786 32182 ft 449 kts 359°
2026-04-27 14:30 39.84665 23.66235 32178 ft 449 kts 359°
2026-04-27 14:30 39.90916 23.66689 32176 ft 449 kts 359°
2026-04-27 14:31 39.97167 23.67130 32189 ft 450 kts 359°
2026-04-27 14:31 40.03376 23.67563 32185 ft 450 kts 359°
2026-04-27 14:32 40.09628 23.68006 32178 ft 450 kts 359°
2026-04-27 14:32 40.15885 23.68451 32181 ft 450 kts 359°
2026-04-27 14:33 40.22141 23.68895 32178 ft 450 kts 359°
2026-04-27 14:33 40.28397 23.69338 32172 ft 450 kts 359°
2026-04-27 14:34 40.34649 23.69780 32169 ft 450 kts 359°
2026-04-27 14:34 40.40914 23.70228 32174 ft 450 kts 359°
2026-04-27 14:35 40.47174 23.70677 32178 ft 450 kts 359°
2026-04-27 14:35 40.53429 23.71136 32181 ft 450 kts 360°
2026-04-27 14:36 40.59689 23.71589 32175 ft 450 kts 360°
2026-04-27 14:36 40.65904 23.72040 32178 ft 450 kts 359°
2026-04-27 14:37 40.72154 23.72490 32183 ft 450 kts 360°
2026-04-27 14:37 40.78404 23.72944 32176 ft 450 kts 360°
2026-04-27 14:38 40.84660 23.73396 32175 ft 450 kts 360°
2026-04-27 14:38 40.90910 23.73847 32170 ft 449 kts 360°
2026-04-27 14:39 40.97153 23.74304 32178 ft 449 kts
2026-04-27 14:39 41.03392 23.74757 32176 ft 449 kts 360°
2026-04-27 14:40 41.09636 23.75207 32168 ft 449 kts 360°
2026-04-27 14:40 41.15874 23.75666 32172 ft 449 kts
2026-04-27 14:41 41.22117 23.76132 32163 ft 449 kts
2026-04-27 14:41 41.28366 23.76590 32160 ft 449 kts
2026-04-27 14:42 41.34611 23.77046 32168 ft 450 kts
2026-04-27 14:42 41.40850 23.77363 32161 ft 447 kts 354°
2026-04-27 14:43 41.47019 23.76515 32158 ft 445 kts 351°
2026-04-27 14:43 41.53181 23.75612 32167 ft 445 kts 351°
2026-04-27 14:44 41.59342 23.74730 32160 ft 445 kts 351°
2026-04-27 14:44 41.65494 23.73862 32165 ft 444 kts 351°
2026-04-27 14:45 41.71683 23.72987 32166 ft 444 kts 351°
2026-04-27 14:45 41.77748 23.72119 32165 ft 443 kts 351°
2026-04-27 14:46 41.84000 23.71217 32166 ft 443 kts 351°
2026-04-27 14:46 41.89145 23.70474 32167 ft 443 kts 351°
2026-04-27 14:47 41.95313 23.69595 32183 ft 442 kts 351°
2026-04-27 14:47 42.01391 23.68712 32183 ft 442 kts 351°
2026-04-27 14:48 42.07556 23.67822 32188 ft 442 kts 351°
2026-04-27 14:48 42.16847 23.66487 32201 ft 441 kts 351°
2026-04-27 14:49 42.22879 23.65619 32200 ft 441 kts 351°
2026-04-27 14:49 42.29116 23.64705 32203 ft 441 kts 351°
2026-04-27 14:50 42.35143 23.63515 32207 ft 439 kts 347°
2026-04-27 14:50 42.41337 23.61848 32196 ft 439 kts 346°
2026-04-27 14:51 42.47356 23.60201 32196 ft 439 kts 346°
2026-04-27 14:51 42.52340 23.58911 32198 ft 439 kts 347°